Time,TemperatureF,DewpointF,PressureIn,WindDirection,WindDirectionDegrees,WindSpeedMPH,WindSpeedGustMPH,Humidity,HourlyPrecipIn,Conditions,Clouds,dailyrainin,SolarRadiationWatts/m^2,SoftwareType,DateUTC
2013-02-03 00:01:00,30.0,24.0,30.29,NNW,328,1.0,2.0,79,-99.99,,,-99.99,0.000000,,2013-02-03 08:01:00,
2013-02-03 00:10:00,28.0,24.0,30.28,WSW,238,1.0,3.0,86,-99.99,,,-99.99,0.000000,,2013-02-03 08:10:00,
2013-02-03 00:52:00,28.0,24.0,30.28,WSW,238,1.0,3.0,86,-99.99,,,-99.99,0.000000,,2013-02-03 08:52:00,
2013-02-03 01:02:00,28.0,24.0,30.28,WSW,238,1.0,3.0,86,-99.99,,,-99.99,0.000000,,2013-02-03 09:02:00,
2013-02-03 01:10:00,28.0,25.0,30.26,SSE,154,2.0,3.0,89,-99.99,,,-99.99,0.000000,,2013-02-03 09:10:00,
2013-02-03 01:51:00,28.0,25.0,30.26,SSE,154,2.0,3.0,89,-99.99,,,-99.99,0.000000,,2013-02-03 09:51:00,
2013-02-03 02:01:00,28.0,25.0,30.26,SSE,154,2.0,3.0,89,-99.99,,,-99.99,0.000000,,2013-02-03 10:01:00,
2013-02-03 02:10:00,29.0,26.0,30.23,NNW,338,0.0,1.0,90,-99.99,,,-99.99,0.000000,,2013-02-03 10:10:00,
2013-02-03 02:52:00,29.0,26.0,30.23,NNW,338,0.0,1.0,90,-99.99,,,-99.99,0.000000,,2013-02-03 10:52:00,
2013-02-03 03:02:00,29.0,26.0,30.23,NNW,338,0.0,1.0,90,-99.99,,,-99.99,0.000000,,2013-02-03 11:02:00,
2013-02-03 03:10:00,29.0,25.0,30.21,North,9,0.0,1.0,87,-99.99,,,-99.99,0.000000,,2013-02-03 11:10:00,
2013-02-03 03:52:00,29.0,25.0,30.21,North,9,0.0,1.0,87,-99.99,,,-99.99,0.000000,,2013-02-03 11:52:00,
2013-02-03 04:02:00,29.0,25.0,30.21,North,9,0.0,1.0,87,-99.99,,,-99.99,0.000000,,2013-02-03 12:02:00,
2013-02-03 04:10:00,29.0,26.0,30.21,WSW,251,3.0,4.0,86,-99.99,,,-99.99,0.000000,,2013-02-03 12:10:00,
2013-02-03 04:53:00,29.0,26.0,30.21,WSW,251,3.0,4.0,86,-99.99,,,-99.99,0.000000,,2013-02-03 12:53:00,
2013-02-03 05:03:00,29.0,26.0,30.21,WSW,251,3.0,4.0,86,-99.99,,,-99.99,0.000000,,2013-02-03 13:03:00,
2013-02-03 05:10:00,29.0,26.0,30.19,NNW,341,1.0,3.0,88,-99.99,,,-99.99,0.000000,,2013-02-03 13:10:00,
2013-02-03 05:52:00,29.0,26.0,30.19,NNW,341,1.0,3.0,88,-99.99,,,-99.99,0.000000,,2013-02-03 13:52:00,
2013-02-03 06:02:00,29.0,26.0,30.19,NNW,341,1.0,3.0,88,-99.99,,,-99.99,0.000000,,2013-02-03 14:02:00,
2013-02-03 06:10:00,27.0,25.0,30.19,NNE,26,2.0,3.0,92,-99.99,,,-99.99,0.000000,,2013-02-03 14:10:00,
2013-02-03 06:52:00,27.0,25.0,30.19,NNE,26,2.0,3.0,92,-99.99,,,-99.99,0.000000,,2013-02-03 14:52:00,
2013-02-03 07:03:00,27.0,25.0,30.19,NNE,26,2.0,3.0,92,-99.99,,,-99.99,0.000000,,2013-02-03 15:03:00,
2013-02-03 07:10:00,29.0,25.0,30.18,WNW,290,4.0,5.0,86,-99.99,,,-99.99,20.000000,,2013-02-03 15:10:00,
2013-02-03 07:51:00,29.0,25.0,30.18,WNW,290,4.0,5.0,86,-99.99,,,-99.99,20.000000,,2013-02-03 15:51:00,
2013-02-03 08:02:00,29.0,25.0,30.18,WNW,290,4.0,5.0,86,-99.99,,,-99.99,20.000000,,2013-02-03 16:02:00,
2013-02-03 08:10:00,30.0,27.0,30.18,NE,38,1.0,2.0,86,-99.99,,,-99.99,100.000000,,2013-02-03 16:10:00,
2013-02-03 08:52:00,30.0,27.0,30.18,NE,38,1.0,2.0,86,-99.99,,,-99.99,100.000000,,2013-02-03 16:52:00,
2013-02-03 09:02:00,30.0,27.0,30.18,NE,38,1.0,2.0,86,-99.99,,,-99.99,100.000000,,2013-02-03 17:02:00,
2013-02-03 09:10:00,34.0,26.0,30.18,NE,54,2.0,4.0,73,-99.99,,,-99.99,280.000000,,2013-02-03 17:10:00,
2013-02-03 09:52:00,34.0,26.0,30.18,NE,54,2.0,4.0,73,-99.99,,,-99.99,280.000000,,2013-02-03 17:52:00,
2013-02-03 10:02:00,34.0,26.0,30.18,NE,54,2.0,4.0,73,-99.99,,,-99.99,280.000000,,2013-02-03 18:02:00,
2013-02-03 10:10:00,39.0,26.0,30.18,NW,313,1.0,3.0,60,-99.99,,,-99.99,550.000000,,2013-02-03 18:10:00,
2013-02-03 10:51:00,39.0,26.0,30.18,NW,313,1.0,3.0,60,-99.99,,,-99.99,550.000000,,2013-02-03 18:51:00,
2013-02-03 11:02:00,39.0,26.0,30.18,NW,313,1.0,3.0,60,-99.99,,,-99.99,550.000000,,2013-02-03 19:02:00,
2013-02-03 11:10:00,41.0,26.0,30.17,North,354,2.0,5.0,54,-99.99,,,-99.99,570.000000,,2013-02-03 19:10:00,
2013-02-03 11:51:00,41.0,26.0,30.17,North,354,2.0,5.0,54,-99.99,,,-99.99,570.000000,,2013-02-03 19:51:00,
2013-02-03 12:01:00,41.0,26.0,30.17,North,354,2.0,5.0,54,-99.99,,,-99.99,570.000000,,2013-02-03 20:01:00,
2013-02-03 12:10:00,44.0,26.0,30.15,NNE,28,4.0,8.0,50,-99.99,,,-99.99,650.000000,,2013-02-03 20:10:00,
2013-02-03 12:52:00,44.0,26.0,30.15,NNE,28,4.0,8.0,50,-99.99,,,-99.99,650.000000,,2013-02-03 20:52:00,
2013-02-03 13:03:00,44.0,26.0,30.15,NNE,28,4.0,8.0,50,-99.99,,,-99.99,650.000000,,2013-02-03 21:03:00,
2013-02-03 13:10:00,46.0,26.0,30.13,NNE,17,4.0,8.0,46,-99.99,,,-99.99,600.000000,,2013-02-03 21:10:00,
2013-02-03 13:51:00,46.0,26.0,30.13,NNE,17,4.0,8.0,46,-99.99,,,-99.99,600.000000,,2013-02-03 21:51:00,
2013-02-03 14:01:00,46.0,26.0,30.13,NNE,17,4.0,8.0,46,-99.99,,,-99.99,600.000000,,2013-02-03 22:01:00,
2013-02-03 14:10:00,47.0,26.0,30.12,North,7,6.0,8.0,43,-99.99,,,-99.99,490.000000,,2013-02-03 22:10:00,
2013-02-03 14:51:00,47.0,26.0,30.12,North,7,6.0,8.0,43,-99.99,,,-99.99,490.000000,,2013-02-03 22:51:00,
2013-02-03 15:01:00,47.0,26.0,30.12,North,7,6.0,8.0,43,-99.99,,,-99.99,490.000000,,2013-02-03 23:01:00,
2013-02-03 15:10:00,47.0,25.0,30.13,NNW,347,9.0,12.0,42,-99.99,,,-99.99,330.000000,,2013-02-03 23:10:00,
2013-02-03 15:52:00,47.0,25.0,30.13,NNW,347,9.0,12.0,42,-99.99,,,-99.99,330.000000,,2013-02-03 23:52:00,
2013-02-03 16:01:00,47.0,25.0,30.13,NNW,347,9.0,12.0,42,-99.99,,,-99.99,330.000000,,2013-02-04 00:01:00,
2013-02-03 16:10:00,44.0,22.0,30.13,NNW,346,8.0,11.0,41,-99.99,,,-99.99,20.000000,,2013-02-04 00:10:00,
2013-02-03 16:51:00,44.0,22.0,30.13,NNW,346,8.0,11.0,41,-99.99,,,-99.99,20.000000,,2013-02-04 00:51:00,
2013-02-03 17:01:00,44.0,22.0,30.13,NNW,346,8.0,11.0,41,-99.99,,,-99.99,20.000000,,2013-02-04 01:01:00,
2013-02-03 17:10:00,38.0,21.0,30.12,WNW,294,6.0,8.0,49,-99.99,,,-99.99,0.000000,,2013-02-04 01:10:00,
2013-02-03 17:52:00,38.0,21.0,30.12,WNW,294,6.0,8.0,49,-99.99,,,-99.99,0.000000,,2013-02-04 01:52:00,
2013-02-03 18:01:00,38.0,21.0,30.12,WNW,294,6.0,8.0,49,-99.99,,,-99.99,0.000000,,2013-02-04 02:01:00,
2013-02-03 18:10:00,36.0,22.0,30.13,NW,308,6.0,8.0,56,-99.99,,,-99.99,0.000000,,2013-02-04 02:10:00,
2013-02-03 18:52:00,36.0,22.0,30.13,NW,308,6.0,8.0,56,-99.99,,,-99.99,0.000000,,2013-02-04 02:52:00,
2013-02-03 19:01:00,36.0,22.0,30.13,NW,308,6.0,8.0,56,-99.99,,,-99.99,0.000000,,2013-02-04 03:01:00,
2013-02-03 19:10:00,38.0,22.0,30.16,NW,317,7.0,11.0,53,-99.99,,,-99.99,0.000000,,2013-02-04 03:10:00,
2013-02-03 19:51:00,38.0,22.0,30.16,NW,317,7.0,11.0,53,-99.99,,,-99.99,0.000000,,2013-02-04 03:51:00,
2013-02-03 20:01:00,38.0,22.0,30.16,NW,317,7.0,11.0,53,-99.99,,,-99.99,0.000000,,2013-02-04 04:01:00,
2013-02-03 20:10:00,31.0,22.0,30.14,West,279,5.0,8.0,71,-99.99,,,-99.99,0.000000,,2013-02-04 04:10:00,
2013-02-03 20:52:00,31.0,22.0,30.14,West,279,5.0,8.0,71,-99.99,,,-99.99,0.000000,,2013-02-04 04:52:00,
2013-02-03 21:03:00,31.0,22.0,30.14,West,279,5.0,8.0,71,-99.99,,,-99.99,0.000000,,2013-02-04 05:03:00,
2013-02-03 21:10:00,28.0,23.0,30.15,WNW,292,5.0,6.0,81,-99.99,,,-99.99,0.000000,,2013-02-04 05:10:00,
2013-02-03 21:52:00,28.0,23.0,30.15,WNW,292,5.0,6.0,81,-99.99,,,-99.99,0.000000,,2013-02-04 05:52:00,
2013-02-03 22:01:00,28.0,23.0,30.15,WNW,292,5.0,6.0,81,-99.99,,,-99.99,0.000000,,2013-02-04 06:01:00,
2013-02-03 23:10:00,26.0,22.0,30.17,WSW,258,3.0,5.0,84,-99.99,,,-99.99,0.000000,,2013-02-04 07:10:00,
2013-02-03 23:51:00,26.0,22.0,30.17,WSW,258,3.0,5.0,84,-99.99,,,-99.99,0.000000,,2013-02-04 07:51:00,